Regional Weather Roundup
Issued by NWS

Home | Current Version | Previous Version | Text Only | Print | Product List | Glossary Off
Versions: 1 2 3 4 5 6 7 8 9 10 11 12 13 14 15 16 17 18 19 20 21 22 23 24 25 26 27

000
ASUS45 KPSR 252310
RWRAZ

ARIZONA HOURLY REGIONAL WEATHER ROUNDUP
NATIONAL WEATHER SERVICE PHOENIX AZ
400 PM MST SAT MAR 25 2017

NOTE: FAIR INDICATES FEW OR NO CLOUDS BELOW 12,000 FEET WITH NO
SIGNIFICANT WEATHER AND/OR OBSTRUCTIONS TO VISIBILITY.

AZZ001>003-036-260000-
NORTHWEST ARIZONA

CITY           SKY/WX    TMP DP  RH WIND       PRES   REMARKS
BULLHEAD CITY  SUNNY     79  34  19 VRB5      29.83F
KINGMAN        MOSUNNY   67  20  16 W16       29.93F
$$

AZZ004>008-015-016-018-260000-
NORTH CENTRAL ARIZONA

CITY           SKY/WX    TMP DP  RH WIND       PRES   REMARKS
GRAND CANYON   PTSUNNY   49  30  48 SW20G30   29.96S
WILLIAMS       PTSUNNY   48  27  43 W12G22    29.99F
PRESCOTT       PTSUNNY   60  27  28 SW20      29.97F
FLAGSTAFF      PTSUNNY   45  36  70 SW9       29.98F
PAYSON         MOSUNNY   61  30  31 SW18G29   30.01F
PAGE           PTSUNNY   61  42  49 MISG      29.85F
$$

AZZ009>014-017-260000-
NORTHEAST ARIZONA

CITY           SKY/WX    TMP DP  RH WIND       PRES   REMARKS
WINSLOW        MOSUNNY   66  29  24 SW28G36   29.90F
SAINT JOHNS    SUNNY     67  15  13 SW18G32   29.91S
WINDOW ROCK    PTSUNNY   58  21  24 SW15      29.92F
SHOW LOW       MOSUNNY   55  27  33 SW24      30.00S
$$

AZZ023-260000-
GREATER PHOENIX AREA

CITY           SKY/WX    TMP DP  RH WIND       PRES   REMARKS
PHOENIX        MOSUNNY   81  30  15 W13       29.84F
BUCKEYE        MOSUNNY   81  27  13 W7G18     29.85F
GLENDALE       MOSUNNY   82  30  15 SW17      29.86F
LUKE AFB       SUNNY     81  30  15 S9        29.83F
DEER VALLEY    MOSUNNY   79  26  14 W18G37    29.85F
SCOTTSDALE     SUNNY     79  28  15 SW12G17   29.87F
MESA-FALCON    MOSUNNY  N/A N/A N/A W16       29.83F
MESA-GATEWAY   MOSUNNY   81  32  17 W12       29.87F
CHANDLER       PTSUNNY   81  30  16 SW16G23   29.85
$$

AZZ027-028-260000-
SOUTHWEST MARICOPA COUNTY AND PINAL COUNTY

CITY           SKY/WX    TMP DP  RH WIND       PRES   REMARKS
CASA GRANDE    NOT AVBL
GILA BEND      FAIR      82  24  12 W20G28    29.85F
$$

AZZ503-504-507>509-260000-
SOUTHEAST ARIZONA

CITY           SKY/WX    TMP DP  RH WIND       PRES   REMARKS
TUCSON         SUNNY     80  25  13 W17G23    29.91F
DAVIS-MONTHAN  SUNNY     80  25  13 W16G25    29.89F
RYAN FIELD     SUNNY     81  27  13 SW17G23   29.91F
NOGALES        SUNNY     77  19  11 SW14G26   29.96F
SIERRA VISTA   SUNNY     75  14   9 W20G30    29.97F
DOUGLAS        SUNNY     80   8   6 SW21G32   29.92F
SAFFORD        SUNNY     78  24  13 NW5G18    29.85F
$$

AZZ020-021-025-026-031-260000-
SOUTHWEST ARIZONA

CITY           SKY/WX    TMP DP  RH WIND       PRES   REMARKS
YUMA           SUNNY     81  39  22 NW20G25   29.87F
$$

CAZ031-033-041-043-047-048-061-260000-
SOUTHERN CALIFORNIA

CITY           SKY/WX    TMP DP  RH WIND       PRES   REMARKS
DOWNTOWN L.A.  PTSUNNY   66  54  65 W10G17    30.02F
L.A. AIRPORT   PTSUNNY   63  56  78 SW15      30.04F
SAN DIEGO      PTSUNNY   68  50  52 W9        30.07F
BURBANK        MOSUNNY   63  51  65 S13       30.01F
ONTARIO        PTSUNNY   67  50  54 SW14G23   30.01F
RIVERSIDE      PTSUNNY   69  50  50 W12       30.01F
PALM SPRINGS   MOSUNNY   79  40  24 NW22G28   29.90S
EL CENTRO NAS  SUNNY     81  37  20 W22       29.92S
IMPERIAL       SUNNY     79  43  27 W18G33    29.88F
BLYTHE         MOSUNNY   82  28  14 NW8       29.85F
NEEDLES        PTSUNNY   83  33  16 W13       29.84F
$$

NVZ020-UTZ003-260000-
SOUTHERN NEVADA-UTAH

CITY           SKY/WX    TMP DP  RH WIND       PRES   REMARKS
LAS VEGAS      PTSUNNY   67  34  29 NW13      29.91F
SALT LAKE CITY CLOUDY    42  37  82 CALM      29.99S
$$

NMZ009-TXZ055-260000-
NEW MEXICO-WEST TEXAS

CITY           SKY/WX    TMP DP  RH WIND       PRES   REMARKS
ALBUQUERQUE    CLOUDY    71  15  11 S20G28    29.86F
EL PASO        PTSUNNY   80   5   5 SW14      29.88F
$$


........................KEY........................
SKY/WX - SKY CONDITION/WEATHER
TMP    - TEMPERATURE IN FAHRENHEIT
DP     - DEW POINT IN FAHRENHEIT
RH     - RELATIVE HUMIDITY IN PERCENT
WIND   - DIRECTION AND SPEED IN MILES PER HOUR (MPH)
VRB    - VARIABLE WIND DIRECTION
PRES   - MEAN SEA LEVEL PRESSURE IN INCHES OF MERCURY
         F - FALLING PRESSURE   R - RISING PRESSURE
         S - STEADY PRESSURE
VSB    - VISIBILITY IN MILES
HX     - HEAT INDEX IN FAHRENHEIT
WCI    - WIND CHILL INDEX IN FAHRENHEIT
TC     - TEMPERATURE IN CELSIUS WHICH IS ALSO KNOWN AS
         TEMPERATURE IN CENTIGRADE
AFB    - AIR FORCE BASE
         LUKE AFB IS LUKE AIR FORCE BASE
         DAVIS-MONTHAN IS DAVIS-MONTHAN AIR FORCE BASE
NAS    - NAVAL AIR STATION
         EL CENTRO NAS IS EL CENTRO NAVAL AIR STATION
N/A    - NOT AVAILABLE





USA.gov is the U.S. government's official web portal to all federal, state and local government web resources and services.